This is the latest recevied weather packets stored in our database for station/object OE5WWO. If no packets are shown the sender has not sent any weather packets the latest 10 day(s).
| Time | Temp. | Humidity | Pressure | Rain* | Wind** | Luminosity | Snow |
|---|---|---|---|---|---|---|---|
| 1777680336 | 8.89° C | 76% | 1026 hPa | 0 mm | - | - | - |
| 1777679741 | 8.89° C | 75% | 1026.1 hPa | 0 mm | - | - | - |
| 1777677641 | 9.44° C | 71% | 1026.1 hPa | 0 mm | - | - | - |
| 1777674937 | 10° C | 67% | 1026.3 hPa | 0 mm | - | - | - |
| 1777674337 | 10.56° C | 66% | 1026.4 hPa | 0 mm | - | - | - |
| 1777667139 | 12.78° C | 58% | 1026.3 hPa | 0 mm | - | - | - |
| 1777666840 | 12.78° C | 58% | 1026.3 hPa | 0 mm | - | - | - |
| 1777664759 | 13.89° C | 56% | 1026.2 hPa | 0 mm | - | - | - |
| 1777664140 | 13.89° C | 56% | 1026.3 hPa | 0 mm | - | - | - |
| 1777663855 | 13.89° C | 56% | 1026.1 hPa | 0 mm | - | - | - |
| 1777663240 | 14.44° C | 55% | 1026.1 hPa | 0 mm | - | - | - |
| 1777662641 | 15° C | 54% | 1026.1 hPa | 0 mm | - | - | - |
| 1777662341 | 15° C | 53% | 1026.1 hPa | 0 mm | - | - | - |
| 1777662074 | 15° C | 52% | 1026.1 hPa | 0 mm | - | - | - |
| 1777656944 | 18.89° C | 40% | 1025.2 hPa | 0 mm | - | - | - |
| 1777655441 | 18.89° C | 39% | 1025 hPa | 0 mm | - | - | - |
| 1777655137 | 19.44° C | 39% | 1025 hPa | 0 mm | - | - | - |
| 1777654854 | 19.44° C | 38% | 1025.1 hPa | 0 mm | - | - | - |
| 1777648550 | 20.56° C | 34% | 1025.9 hPa | 0 mm | - | - | - |
| 1777647344 | 20.56° C | 34% | 1025.9 hPa | 0 mm | - | - | - |
| 1777645856 | 21.11° C | 35% | 1026.1 hPa | 0 mm | - | - | - |
| 1777645542 | 20.56° C | 34% | 1026.1 hPa | 0 mm | - | - | - |
| 1777644340 | 20.56° C | 34% | 1026.3 hPa | 0 mm | - | - | - |
| 1777640452 | 20° C | 35% | 1027 hPa | 0 mm | - | - | - |
| 1777638939 | 19.44° C | 35% | 1027.3 hPa | 0 mm | - | - | - |
* Rain latest hour (hover to see other rain measurements)
** Current wind speed in m/s (hover to see current wind gust speed)